This demonstration page uses our WeatherBlox Daily Observations layout. Learn more.

Left ArrowRight Arrow

Hourly Observations for October 18, 2021

Temp ( °F °C ) Dew Point ( °F °C ) Humidity (%) Winds ( mph kmh ) Pressure ( in mb ) Visibility ( mi km ) Precip ( " mm )
12:53 am 00:53 Cloudy with Light Rain 50 10 46 7.8 86 86 E 5 7 29.81 1009 10 16 0.03 0.76
1:53 am 01:53 Cloudy with Light Rain 50 10 47 8.3 89 89 E 3 6 29.83 1010 9 14 0.09 2.29
2:53 am 02:53 Cloudy with Light Rain 50 10 47 8.3 89 89 ESE 6 9 29.85 1011 10 16 0.02 0.51
3:53 am 03:53 Partly Cloudy 50 10 46 7.8 86 86 S 5 7 29.86 1011 10 16 0.01 0.25
4:53 am 04:53 Cloudy 49 9.4 46 7.8 90 90 SW 3 6 29.89 1012 10 16 N/A
5:53 am 05:53 Cloudy 49 9.4 45 7.2 86 86 SSW 6 9 29.92 1013 10 16 N/A
6:53 am 06:53 Cloudy 49 9.4 45 7.2 86 86 W 3 6 29.94 1014 10 16 N/A
7:53 am 07:53 Mostly Cloudy 47 8.3 45 7.2 93 93 W 3 6 29.97 1015 10 16 N/A
8:53 am 08:53 Mostly Cloudy 49 9.4 45 7.2 86 86 WSW 3 6 30.00 1016 10 16 N/A
9:33 am 09:33 Cloudy 50 10 46 7.8 86 86 N N/A 30.03 1017 10 16 N/A
9:53 am 09:53 Cloudy 51 10.6 45 7.2 80 80 VRB 6 9 30.01 1016 10 16 N/A
10:20 am 10:20 Mostly Cloudy 52 11.1 45 7.2 77 77 S 6 9 30.03 1017 10 16 N/A
10:53 am 10:53 Cloudy 53 11.7 45 7.2 74 74 SSE 8 13 30.01 1016 10 16 N/A
11:05 am 11:05 Cloudy 53 11.7 45 7.2 74 74 SE 8 13 30.02 1017 10 16 N/A
11:24 am 11:24 Cloudy 53 11.7 45 7.2 74 74 SSE 6 9 30.02 1017 10 16 N/A
11:31 am 11:31 Cloudy 53 11.7 45 7.2 74 74 SSE 6 9 30.02 1017 10 16 N/A
11:53 am 11:53 Cloudy 54 12.2 45 7.2 72 72 S 7 11 30.02 1017 10 16 N/A
12:53 pm 12:53 Cloudy 55 12.8 44 6.7 67 67 SW 6 9 30.02 1017 10 16 N/A
1:53 pm 13:53 Cloudy 56 13.3 43 6.1 62 62 WSW 5 7 30.02 1017 10 16 N/A
2:53 pm 14:53 Cloudy 57 13.9 44 6.7 62 62 N N/A 30.01 1016 10 16 N/A
3:53 pm 15:53 Mostly Sunny 59 15 43 6.1 56 56 N N/A 30.02 1017 10 16 N/A
4:53 pm 16:53 Sunny 57 13.9 42 5.6 58 58 N N/A 30.02 1017 10 16 N/A
5:53 pm 17:53 Sunny 57 13.9 43 6.1 60 60 N N/A 30.01 1016 10 16 N/A
6:53 pm 18:53 Clear 52 11.1 44 6.7 75 75 N N/A 30.02 1017 10 16 N/A
7:53 pm 19:53 Clear 49 9.4 45 7.2 86 86 NNE 5 7 30.02 1017 10 16 N/A
8:53 pm 20:53 Clear 50 10 42 5.6 74 74 N 5 7 30.03 1017 10 16 N/A
9:53 pm 21:53 Clear 48 8.9 43 6.1 83 83 N 5 7 30.04 1017 10 16 N/A
10:53 pm 22:53 Clear 45 7.2 42 5.6 90 90 NNE 3 6 30.04 1017 10 16 N/A
11:53 pm 23:53 Clear 45 7.2 42 5.6 90 90 NNW 3 6 30.04 1017 10 16 N/A

Powered by AerisWeather